Terminal Aerodrome Forecast
Issued by NWS

Home | Current Version | Previous Version | Text Only | Print | Product List | Glossary On
Versions: 1 2 3 4 5 6 7 8 9 10 11 12 13 14 15 16 17 18 19 20 21 22 23 24
000
FTPQ31 PGUM 311730
TAFGUM
TAF

TAF
PTKK 311730Z 3118/0118 07008KT P6SM VCSH FEW018 SCT040 SCT120
      TEMPO 3118/3120 -SHRA SCT014 BKN030=

USA.gov is the U.S. government's official web portal to all federal, state and local government web resources and services.